Time,TemperatureF,DewpointF,PressureIn,WindDirection,WindDirectionDegrees,WindSpeedMPH,WindSpeedGustMPH,Humidity,HourlyPrecipIn,Conditions,Clouds,dailyrainin,SoftwareType,DateUTC
2013-08-19 00:00:00,77.8,75.6,30.07,ESE,121,0.0,0.0,93,0.14,RA,,0.00,WeatherDisplay:10.37,2013-08-19 04:00:00,
2013-08-19 00:01:00,77.8,75.6,30.07,ESE,121,0.0,0.0,93,0.14,RA,,0.00,WeatherDisplay:10.37,2013-08-19 04:01:00,
2013-08-19 00:06:00,77.9,76.0,30.06,ESE,121,0.0,0.0,94,0.14,RA,,0.00,WeatherDisplay:10.37,2013-08-19 04:06:00,
2013-08-19 00:11:00,77.7,75.8,30.06,ESE,121,0.0,0.0,94,0.14,CLR,,0.00,WeatherDisplay:10.37,2013-08-19 04:11:00,
2013-08-19 00:16:00,77.6,75.7,30.06,ESE,121,0.3,1.2,94,0.02,CLR,,0.00,WeatherDisplay:10.37,2013-08-19 04:16:00,
2013-08-19 00:21:00,77.6,75.7,30.06,ESE,121,0.0,0.0,94,0.01,CLR,,0.00,WeatherDisplay:10.37,2013-08-19 04:21:00,
2013-08-19 00:26:00,77.6,75.7,30.06,ESE,121,0.0,0.0,94,0.00,CLR,,0.00,WeatherDisplay:10.37,2013-08-19 04:26:00,
2013-08-19 00:31:00,77.5,75.6,30.06,ESE,121,0.0,0.0,94,0.00,CLR,,0.00,WeatherDisplay:10.37,2013-08-19 04:31:00,
2013-08-19 00:36:00,77.5,76.0,30.06,ESE,121,0.0,0.0,95,0.00,CLR,,0.00,WeatherDisplay:10.37,2013-08-19 04:36:00,
2013-08-19 00:41:00,77.5,76.0,30.05,ESE,121,0.0,0.0,95,0.00,CLR,,0.00,WeatherDisplay:10.37,2013-08-19 04:41:00,
2013-08-19 00:46:00,77.9,76.4,30.05,ESE,121,0.0,0.0,95,0.00,CLR,,0.00,WeatherDisplay:10.37,2013-08-19 04:46:00,
2013-08-19 00:51:00,78.0,76.5,30.05,ESE,121,0.0,0.0,95,0.00,CLR,,0.00,WeatherDisplay:10.37,2013-08-19 04:51:00,
2013-08-19 00:56:00,77.8,76.3,30.05,ESE,121,0.0,0.0,95,0.00,CLR,,0.00,WeatherDisplay:10.37,2013-08-19 04:56:00,
2013-08-19 01:01:00,77.6,76.1,30.05,ESE,121,0.0,0.0,95,0.00,CLR,,0.00,WeatherDisplay:10.37,2013-08-19 05:01:00,
2013-08-19 01:06:00,77.5,76.0,30.05,ESE,121,0.0,0.0,95,0.00,CLR,,0.00,WeatherDisplay:10.37,2013-08-19 05:06:00,
2013-08-19 01:11:00,77.4,75.9,30.05,ESE,121,0.0,0.0,95,0.00,CLR,,0.00,WeatherDisplay:10.37,2013-08-19 05:11:00,
2013-08-19 01:16:00,77.3,75.8,30.05,ESE,121,0.6,1.2,95,0.00,CLR,,0.00,WeatherDisplay:10.37,2013-08-19 05:16:00,
2013-08-19 01:21:00,77.5,76.3,30.04,ESE,121,0.0,0.0,96,0.00,CLR,,0.00,WeatherDisplay:10.37,2013-08-19 05:21:00,
2013-08-19 01:26:00,77.9,76.7,30.04,ESE,121,0.3,2.0,96,0.00,CLR,,0.00,WeatherDisplay:10.37,2013-08-19 05:26:00,
2013-08-19 01:31:00,78.0,76.8,30.04,ESE,121,0.0,1.2,96,0.00,CLR,,0.00,WeatherDisplay:10.37,2013-08-19 05:31:00,
2013-08-19 01:36:00,78.1,76.9,30.04,ESE,121,0.0,0.0,96,0.00,CLR,,0.00,WeatherDisplay:10.37,2013-08-19 05:36:00,
2013-08-19 01:41:00,78.1,76.9,30.04,ESE,121,0.0,0.0,96,0.00,CLR,,0.00,WeatherDisplay:10.37,2013-08-19 05:41:00,
2013-08-19 01:46:00,78.2,77.0,30.04,ESE,121,0.0,0.0,96,0.00,CLR,,0.00,WeatherDisplay:10.37,2013-08-19 05:46:00,
2013-08-19 01:51:00,78.4,77.2,30.04,ESE,121,0.0,0.0,96,0.00,CLR,,0.00,WeatherDisplay:10.37,2013-08-19 05:51:00,
2013-08-19 01:56:00,78.3,77.1,30.03,ESE,121,1.1,2.3,96,0.00,CLR,,0.00,WeatherDisplay:10.37,2013-08-19 05:56:00,
2013-08-19 02:01:00,78.2,77.0,30.03,ESE,121,0.2,1.0,96,0.00,CLR,,0.00,WeatherDisplay:10.37,2013-08-19 06:01:00,
2013-08-19 02:06:00,78.1,76.9,30.03,ESE,121,1.0,2.3,96,0.00,CLR,,0.00,WeatherDisplay:10.37,2013-08-19 06:06:00,
2013-08-19 02:11:00,78.1,76.9,30.03,ESE,121,0.4,1.2,96,0.00,CLR,,0.00,WeatherDisplay:10.37,2013-08-19 06:11:00,
2013-08-19 02:16:00,78.0,76.8,30.03,ESE,121,0.0,1.2,96,0.00,CLR,,0.00,WeatherDisplay:10.37,2013-08-19 06:16:00,
2013-08-19 02:21:00,77.9,76.7,30.03,ESE,121,0.0,0.0,96,0.00,CLR,,0.00,WeatherDisplay:10.37,2013-08-19 06:21:00,
2013-08-19 02:26:00,77.9,76.7,30.03,ESE,121,0.6,1.2,96,0.00,CLR,,0.00,WeatherDisplay:10.37,2013-08-19 06:26:00,
2013-08-19 02:31:00,78.0,76.8,30.02,ESE,120,0.4,1.0,96,0.00,CLR,,0.00,WeatherDisplay:10.37,2013-08-19 06:31:00,
2013-08-19 02:36:00,77.8,76.6,30.02,ESE,121,0.4,2.3,96,0.00,CLR,,0.00,WeatherDisplay:10.37,2013-08-19 06:36:00,
2013-08-19 02:41:00,77.8,76.6,30.02,ESE,121,0.0,0.0,96,0.00,CLR,,0.00,WeatherDisplay:10.37,2013-08-19 06:41:00,
2013-08-19 02:46:00,77.8,76.6,30.02,ESE,121,0.0,0.0,96,0.00,CLR,,0.00,WeatherDisplay:10.37,2013-08-19 06:46:00,
2013-08-19 02:51:00,77.8,76.6,30.02,ESE,121,0.0,0.0,96,0.00,CLR,,0.00,WeatherDisplay:10.37,2013-08-19 06:51:00,
2013-08-19 02:56:00,78.0,76.8,30.02,ESE,121,0.0,0.0,96,0.00,CLR,,0.00,WeatherDisplay:10.37,2013-08-19 06:56:00,
2013-08-19 03:01:00,78.0,76.8,30.01,ESE,121,0.0,0.0,96,0.00,CLR,,0.00,WeatherDisplay:10.37,2013-08-19 07:01:00,
2013-08-19 03:06:00,78.1,76.9,30.02,ESE,121,0.0,0.0,96,0.00,CLR,,0.00,WeatherDisplay:10.37,2013-08-19 07:06:00,
2013-08-19 03:11:00,77.8,76.6,30.02,ESE,121,0.0,0.0,96,0.00,CLR,,0.00,WeatherDisplay:10.37,2013-08-19 07:11:00,
2013-08-19 03:16:00,77.7,76.5,30.02,ESE,121,0.0,0.0,96,0.00,CLR,,0.00,WeatherDisplay:10.37,2013-08-19 07:16:00,
2013-08-19 03:21:00,77.7,76.5,30.01,ESE,121,0.0,0.0,96,0.00,CLR,,0.00,WeatherDisplay:10.37,2013-08-19 07:21:00,
2013-08-19 03:26:00,77.8,76.6,30.01,ESE,121,0.0,0.0,96,0.00,CLR,,0.00,WeatherDisplay:10.37,2013-08-19 07:26:00,
2013-08-19 03:31:00,77.6,76.4,30.01,ESE,121,0.1,1.2,96,0.00,CLR,,0.00,WeatherDisplay:10.37,2013-08-19 07:31:00,
2013-08-19 03:36:00,77.9,76.7,30.01,ESE,121,0.0,0.0,96,0.00,CLR,,0.00,WeatherDisplay:10.37,2013-08-19 07:36:00,
2013-08-19 03:41:00,77.6,76.4,30.01,ESE,121,0.0,0.0,96,0.00,CLR,,0.00,WeatherDisplay:10.37,2013-08-19 07:41:00,
2013-08-19 03:46:00,77.5,76.3,30.01,ESE,121,0.0,0.0,96,0.00,CLR,,0.00,WeatherDisplay:10.37,2013-08-19 07:46:00,
2013-08-19 03:51:00,77.6,76.4,30.01,ESE,121,0.0,0.0,96,0.00,CLR,,0.00,WeatherDisplay:10.37,2013-08-19 07:51:00,
2013-08-19 03:56:00,77.8,76.6,30.01,ESE,121,0.0,0.0,96,0.00,CLR,,0.00,WeatherDisplay:10.37,2013-08-19 07:56:00,
2013-08-19 04:01:00,77.7,76.5,30.01,ESE,121,0.0,0.0,96,0.00,CLR,,0.00,WeatherDisplay:10.37,2013-08-19 08:01:00,
2013-08-19 04:06:00,77.6,76.4,30.00,ESE,121,0.0,0.0,96,0.00,CLR,,0.00,WeatherDisplay:10.37,2013-08-19 08:06:00,
2013-08-19 04:12:00,77.6,76.4,30.00,ESE,121,0.0,0.0,96,0.00,CLR,,0.00,WeatherDisplay:10.37,2013-08-19 08:12:00,
2013-08-19 04:17:00,77.6,76.7,30.00,ESE,121,0.0,0.0,97,0.00,CLR,,0.00,WeatherDisplay:10.37,2013-08-19 08:17:00,
2013-08-19 04:22:00,77.6,76.7,30.00,ESE,121,0.0,0.0,97,0.00,CLR,,0.00,WeatherDisplay:10.37,2013-08-19 08:22:00,
2013-08-19 04:27:00,78.0,77.1,30.00,ESE,121,0.1,0.0,97,0.00,CLR,,0.00,WeatherDisplay:10.37,2013-08-19 08:27:00,
2013-08-19 04:32:00,78.0,77.1,30.00,ESE,121,0.0,0.0,97,0.00,CLR,,0.01,WeatherDisplay:10.37,2013-08-19 08:32:00,
2013-08-19 04:37:00,78.2,77.3,30.00,NNE,26,2.0,9.0,97,0.01,RA,,0.01,WeatherDisplay:10.37,2013-08-19 08:37:00,
2013-08-19 04:42:00,77.8,76.6,30.00,North,5,6.7,8.1,96,0.01,RA,,0.01,WeatherDisplay:10.37,2013-08-19 08:42:00,
2013-08-19 04:47:00,76.9,75.0,30.00,East,92,1.4,3.5,94,0.02,RA,,0.02,WeatherDisplay:10.37,2013-08-19 08:47:00,
2013-08-19 04:52:00,76.8,74.9,29.99,East,94,0.0,1.2,94,0.04,RA,,0.04,WeatherDisplay:10.37,2013-08-19 08:52:00,
2013-08-19 04:57:00,76.6,74.7,30.00,East,94,0.0,0.0,94,0.04,RA,,0.04,WeatherDisplay:10.37,2013-08-19 08:57:00,
2013-08-19 05:02:00,76.7,75.2,29.99,East,94,0.3,1.2,95,0.05,RA,,0.05,WeatherDisplay:10.37,2013-08-19 09:02:00,
2013-08-19 05:07:00,76.8,75.3,29.99,East,94,0.0,0.0,95,0.05,RA,,0.05,WeatherDisplay:10.37,2013-08-19 09:07:00,
2013-08-19 05:12:00,76.9,75.7,29.99,East,94,0.0,0.0,96,0.05,CLR,,0.05,WeatherDisplay:10.37,2013-08-19 09:12:00,
2013-08-19 05:17:00,77.1,75.9,29.99,East,94,0.7,1.2,96,0.05,CLR,,0.05,WeatherDisplay:10.37,2013-08-19 09:17:00,
2013-08-19 05:22:00,77.4,76.2,29.99,East,94,0.5,1.2,96,0.05,CLR,,0.05,WeatherDisplay:10.37,2013-08-19 09:22:00,
2013-08-19 05:27:00,77.6,76.4,29.99,East,94,0.0,0.0,96,0.05,CLR,,0.05,WeatherDisplay:10.37,2013-08-19 09:27:00,
2013-08-19 05:32:00,77.9,76.7,29.99,East,94,0.0,0.0,96,0.04,CLR,,0.05,WeatherDisplay:10.37,2013-08-19 09:32:00,
2013-08-19 05:37:00,78.2,77.3,29.99,East,94,0.1,1.2,97,0.04,CLR,,0.05,WeatherDisplay:10.37,2013-08-19 09:37:00,
2013-08-19 05:42:00,78.4,77.5,29.99,East,94,0.1,1.2,97,0.04,CLR,,0.05,WeatherDisplay:10.37,2013-08-19 09:42:00,
2013-08-19 05:47:00,78.7,77.8,29.99,East,94,0.4,1.2,97,0.03,CLR,,0.05,WeatherDisplay:10.37,2013-08-19 09:47:00,
2013-08-19 05:52:00,78.7,77.8,29.99,East,94,0.0,3.5,97,0.01,CLR,,0.05,WeatherDisplay:10.37,2013-08-19 09:52:00,
2013-08-19 05:57:00,78.6,77.4,29.99,ENE,76,1.4,2.3,96,0.01,CLR,,0.05,WeatherDisplay:10.37,2013-08-19 09:57:00,
2013-08-19 06:02:00,78.6,77.4,30.00,ENE,69,1.4,3.5,96,0.00,CLR,,0.05,WeatherDisplay:10.37,2013-08-19 10:02:00,
2013-08-19 06:07:00,78.7,77.1,29.99,ENE,69,0.6,2.3,95,0.00,CLR,,0.05,WeatherDisplay:10.37,2013-08-19 10:07:00,
2013-08-19 06:12:00,78.6,77.0,29.99,ENE,70,0.9,3.5,95,0.00,CLR,,0.05,WeatherDisplay:10.37,2013-08-19 10:12:00,
2013-08-19 06:17:00,78.6,77.0,29.99,ENE,70,0.8,1.2,95,0.00,CLR,,0.05,WeatherDisplay:10.37,2013-08-19 10:17:00,
2013-08-19 06:22:00,78.6,77.0,29.99,ENE,70,0.8,1.2,95,0.00,CLR,,0.05,WeatherDisplay:10.37,2013-08-19 10:22:00,
2013-08-19 06:27:00,78.7,77.1,29.99,ENE,71,0.7,2.3,95,0.00,CLR,,0.05,WeatherDisplay:10.37,2013-08-19 10:27:00,
2013-08-19 06:32:00,78.7,77.1,29.99,East,88,1.1,3.5,95,0.00,CLR,,0.05,WeatherDisplay:10.37,2013-08-19 10:32:00,
2013-08-19 06:37:00,78.8,77.2,29.99,ESE,104,3.7,4.6,95,0.00,CLR,,0.05,WeatherDisplay:10.37,2013-08-19 10:37:00,
2013-08-19 06:42:00,78.9,77.3,29.99,East,101,1.2,3.5,95,0.00,CLR,,0.05,WeatherDisplay:10.37,2013-08-19 10:42:00,
2013-08-19 06:47:00,79.0,77.1,29.99,ESE,102,0.9,2.3,94,0.00,CLR,,0.05,WeatherDisplay:10.37,2013-08-19 10:47:00,
2013-08-19 06:52:00,79.1,77.2,29.99,SE,143,2.4,4.6,94,0.00,CLR,,0.05,WeatherDisplay:10.37,2013-08-19 10:52:00,
2013-08-19 06:57:00,79.1,77.2,29.99,East,96,3.5,4.6,94,0.00,CLR,,0.05,WeatherDisplay:10.37,2013-08-19 10:57:00,
2013-08-19 07:02:00,79.3,77.4,29.99,ESE,122,2.7,3.5,94,0.00,CLR,,0.05,WeatherDisplay:10.37,2013-08-19 11:02:00,
2013-08-19 07:07:00,79.3,77.4,29.99,ESE,109,2.7,3.5,94,0.00,CLR,,0.05,WeatherDisplay:10.37,2013-08-19 11:07:00,
2013-08-19 07:12:00,79.5,77.3,29.99,ESE,111,2.6,3.5,93,0.00,CLR,,0.05,WeatherDisplay:10.37,2013-08-19 11:12:00,
2013-08-19 07:17:00,79.5,77.3,29.99,ESE,109,2.8,3.5,93,0.00,CLR,,0.05,WeatherDisplay:10.37,2013-08-19 11:17:00,
2013-08-19 07:22:00,79.6,77.7,29.99,ESE,109,1.2,2.3,94,0.00,CLR,,0.05,WeatherDisplay:10.37,2013-08-19 11:22:00,
2013-08-19 07:27:00,79.7,77.8,29.99,ESE,119,3.5,4.6,94,0.00,CLR,,0.05,WeatherDisplay:10.37,2013-08-19 11:27:00,
2013-08-19 07:32:00,79.9,78.0,29.99,ESE,116,4.6,6.9,94,0.00,CLR,,0.05,WeatherDisplay:10.37,2013-08-19 11:32:00,
2013-08-19 07:37:00,80.3,78.1,29.99,ESE,123,3.0,6.9,93,0.00,CLR,,0.05,WeatherDisplay:10.37,2013-08-19 11:37:00,
2013-08-19 07:42:00,80.6,77.7,29.99,East,100,3.9,8.1,91,0.00,CLR,,0.05,WeatherDisplay:10.37,2013-08-19 11:42:00,
2013-08-19 07:47:00,80.8,77.3,30.00,ESE,110,3.7,6.9,89,0.00,CLR,,0.05,WeatherDisplay:10.37,2013-08-19 11:47:00,
2013-08-19 07:52:00,80.9,77.0,30.00,ESE,120,2.9,4.6,88,0.00,CLR,,0.05,WeatherDisplay:10.37,2013-08-19 11:52:00,
2013-08-19 07:57:00,81.2,77.3,29.99,SE,131,3.8,6.9,88,0.00,CLR,,0.05,WeatherDisplay:10.37,2013-08-19 11:57:00,
2013-08-19 08:02:00,81.4,77.2,29.99,SE,125,1.9,3.5,87,0.00,CLR,,0.05,WeatherDisplay:10.37,2013-08-19 12:02:00,
2013-08-19 08:07:00,81.6,77.7,30.00,ESE,111,2.2,3.5,88,0.00,CLR,,0.05,WeatherDisplay:10.37,2013-08-19 12:07:00,
2013-08-19 08:12:00,81.7,77.8,30.00,ESE,103,0.4,2.3,88,0.00,CLR,,0.05,WeatherDisplay:10.37,2013-08-19 12:12:00,
2013-08-19 08:17:00,81.7,78.1,30.00,ESE,103,0.0,0.0,89,0.00,CLR,,0.05,WeatherDisplay:10.37,2013-08-19 12:17:00,
2013-08-19 08:22:00,81.9,78.3,30.00,ESE,113,7.2,8.1,89,0.00,CLR,,0.05,WeatherDisplay:10.37,2013-08-19 12:22:00,
2013-08-19 08:27:00,82.4,78.1,30.00,ESE,113,3.4,9.2,87,0.00,CLR,,0.05,WeatherDisplay:10.37,2013-08-19 12:27:00,
2013-08-19 08:32:00,82.9,77.9,30.00,East,90,5.7,10.0,85,0.00,CLR,,0.05,WeatherDisplay:10.37,2013-08-19 12:32:00,
2013-08-19 08:37:00,83.1,78.1,30.00,ESE,103,8.2,10.4,85,0.00,CLR,,0.05,WeatherDisplay:10.37,2013-08-19 12:37:00,
2013-08-19 08:42:00,83.3,78.3,30.00,ESE,107,3.9,6.9,85,0.00,CLR,,0.05,WeatherDisplay:10.37,2013-08-19 12:42:00,
2013-08-19 08:47:00,83.6,78.2,30.00,ESE,103,6.2,9.2,84,0.00,CLR,,0.05,WeatherDisplay:10.37,2013-08-19 12:47:00,
2013-08-19 08:52:00,83.9,78.2,30.00,ENE,60,6.3,8.1,83,0.00,CLR,,0.05,WeatherDisplay:10.37,2013-08-19 12:52:00,
2013-08-19 08:57:00,84.3,78.2,30.00,East,79,7.9,10.4,82,0.00,CLR,,0.05,WeatherDisplay:10.37,2013-08-19 12:57:00,
2013-08-19 09:02:00,84.5,78.4,30.00,ESE,109,4.7,4.7,82,0.00,CLR,,0.05,WeatherDisplay:10.37,2013-08-19 13:02:00,
2013-08-19 09:07:00,84.7,78.6,30.00,East,94,6.4,6.9,82,0.00,CLR,,0.05,WeatherDisplay:10.37,2013-08-19 13:07:00,
2013-08-19 09:12:00,84.3,78.2,30.00,East,80,5.4,10.4,82,0.00,CLR,,0.05,WeatherDisplay:10.37,2013-08-19 13:12:00,
2013-08-19 09:17:00,83.8,77.7,30.01,SE,136,7.5,8.1,82,0.00,CLR,,0.05,WeatherDisplay:10.37,2013-08-19 13:17:00,
2013-08-19 09:22:00,83.5,77.8,30.00,East,96,6.3,11.5,83,0.00,CLR,,0.05,WeatherDisplay:10.37,2013-08-19 13:22:00,
2013-08-19 09:27:00,83.5,77.4,30.00,East,80,5.2,9.2,82,0.00,CLR,,0.05,WeatherDisplay:10.37,2013-08-19 13:27:00,
2013-08-19 09:33:00,84.0,77.9,30.00,ENE,67,3.4,8.1,82,0.00,CLR,,0.05,WeatherDisplay:10.37,2013-08-19 13:33:00,
2013-08-19 09:37:00,84.9,78.0,30.00,ENE,70,7.4,15.0,80,0.00,CLR,,0.05,WeatherDisplay:10.37,2013-08-19 13:37:00,
2013-08-19 09:43:00,85.4,78.5,30.00,SE,129,4.3,4.6,80,0.00,CLR,,0.05,WeatherDisplay:10.37,2013-08-19 13:43:00,
2013-08-19 09:48:00,85.7,78.4,30.00,ESE,105,9.5,11.5,79,0.00,CLR,,0.05,WeatherDisplay:10.37,2013-08-19 13:48:00,
2013-08-19 09:53:00,85.7,78.8,30.00,ESE,119,4.2,12.7,80,0.00,CLR,,0.05,WeatherDisplay:10.37,2013-08-19 13:53:00,
2013-08-19 09:58:00,85.7,78.4,30.01,SE,134,7.6,11.5,79,0.00,CLR,,0.05,WeatherDisplay:10.37,2013-08-19 13:58:00,
2013-08-19 10:03:00,85.6,78.3,30.01,ESE,122,4.2,4.6,79,0.00,CLR,,0.05,WeatherDisplay:10.37,2013-08-19 14:03:00,
2013-08-19 10:08:00,85.9,78.2,30.01,ENE,69,7.0,13.8,78,0.00,CLR,,0.05,WeatherDisplay:10.37,2013-08-19 14:08:00,
2013-08-19 10:13:00,85.8,77.8,30.01,East,91,9.1,11.5,77,0.00,CLR,,0.05,WeatherDisplay:10.37,2013-08-19 14:13:00,
2013-08-19 10:18:00,85.5,77.1,30.01,East,82,9.9,13.8,76,0.00,CLR,,0.05,WeatherDisplay:10.37,2013-08-19 14:18:00,
2013-08-19 10:23:00,85.7,77.3,30.01,SE,135,8.1,13.8,76,0.00,CLR,,0.05,WeatherDisplay:10.37,2013-08-19 14:23:00,
2013-08-19 10:28:00,86.0,76.7,30.01,ESE,117,9.2,16.1,74,0.00,CLR,,0.05,WeatherDisplay:10.37,2013-08-19 14:28:00,
2013-08-19 10:33:00,86.2,76.5,30.02,SE,146,5.4,11.5,73,0.00,CLR,,0.05,WeatherDisplay:10.37,2013-08-19 14:33:00,
2013-08-19 10:38:00,86.4,76.7,30.02,SE,136,8.6,12.7,73,0.00,CLR,,0.05,WeatherDisplay:10.37,2013-08-19 14:38:00,
2013-08-19 10:43:00,86.5,77.6,30.02,SE,130,4.9,9.2,75,0.00,CLR,,0.05,WeatherDisplay:10.37,2013-08-19 14:43:00,
2013-08-19 10:48:00,86.6,77.3,30.02,East,92,5.3,6.9,74,0.00,CLR,,0.05,WeatherDisplay:10.37,2013-08-19 14:48:00,
2013-08-19 10:53:00,86.7,77.8,30.02,ESE,103,10.0,12.7,75,0.00,CLR,,0.05,WeatherDisplay:10.37,2013-08-19 14:53:00,
2013-08-19 10:58:00,86.3,77.8,30.02,SSE,153,4.5,6.9,76,0.00,CLR,,0.05,WeatherDisplay:10.37,2013-08-19 14:58:00,
2013-08-19 11:03:00,86.8,78.7,30.02,ESE,105,7.7,11.5,77,0.00,CLR,,0.05,WeatherDisplay:10.37,2013-08-19 15:03:00,
2013-08-19 11:08:00,87.1,78.2,30.02,ESE,107,4.8,9.2,75,0.00,CLR,,0.05,WeatherDisplay:10.37,2013-08-19 15:08:00,
2013-08-19 11:13:00,86.6,78.5,30.02,SSE,156,4.6,4.6,77,0.00,CLR,,0.05,WeatherDisplay:10.37,2013-08-19 15:13:00,
2013-08-19 11:18:00,85.9,78.2,30.03,SE,142,5.9,10.4,78,0.00,CLR,,0.05,WeatherDisplay:10.37,2013-08-19 15:18:00,
2013-08-19 11:23:00,85.6,77.9,30.02,SE,132,5.3,8.1,78,0.00,CLR,,0.05,WeatherDisplay:10.37,2013-08-19 15:23:00,
2013-08-19 11:28:00,85.9,77.8,30.03,ESE,116,7.8,11.5,77,0.00,CLR,,0.05,WeatherDisplay:10.37,2013-08-19 15:28:00,
2013-08-19 11:33:00,86.3,78.6,30.03,SSE,150,7.3,11.5,78,0.00,CLR,,0.05,WeatherDisplay:10.37,2013-08-19 15:33:00,
2013-08-19 11:38:00,85.4,77.8,30.03,South,169,4.6,8.1,78,0.00,CLR,,0.05,WeatherDisplay:10.37,2013-08-19 15:38:00,
2013-08-19 11:43:00,84.5,76.9,30.02,South,175,3.5,5.8,78,0.00,CLR,,0.05,WeatherDisplay:10.37,2013-08-19 15:43:00,
2013-08-19 11:48:00,84.3,76.7,30.02,ESE,121,2.4,4.6,78,0.00,CLR,,0.05,WeatherDisplay:10.37,2013-08-19 15:48:00,
2013-08-19 11:53:00,84.5,76.1,30.02,SSE,150,3.5,4.6,76,0.00,CLR,,0.05,WeatherDisplay:10.37,2013-08-19 15:53:00,
2013-08-19 11:58:00,84.7,75.5,30.02,ESE,121,8.9,11.5,74,0.00,CLR,,0.05,WeatherDisplay:10.37,2013-08-19 15:58:00,
2013-08-19 12:03:00,84.8,76.0,30.02,ENE,75,9.3,15.0,75,0.00,CLR,,0.05,WeatherDisplay:10.37,2013-08-19 16:03:00,
2013-08-19 12:08:00,83.7,75.3,30.02,ESE,102,8.0,11.5,76,0.00,CLR,,0.05,WeatherDisplay:10.37,2013-08-19 16:08:00,
2013-08-19 12:13:00,82.4,75.2,30.02,ENE,74,2.9,3.5,79,0.01,RA,,0.06,WeatherDisplay:10.37,2013-08-19 16:13:00,
2013-08-19 12:18:00,81.7,76.4,30.02,ENE,61,3.2,4.6,84,0.01,RA,,0.06,WeatherDisplay:10.37,2013-08-19 16:18:00,
2013-08-19 12:23:00,82.1,77.8,30.01,East,81,4.7,9.2,87,0.01,,,0.06,WeatherDisplay:10.37,2013-08-19 16:23:00,
2013-08-19 12:28:00,83.3,79.0,30.01,ENE,68,6.5,10.4,87,0.01,CLR,,0.06,WeatherDisplay:10.37,2013-08-19 16:28:00,
2013-08-19 12:33:00,84.3,78.9,30.01,ESE,102,7.1,11.5,84,0.01,CLR,,0.06,WeatherDisplay:10.37,2013-08-19 16:33:00,
2013-08-19 12:38:00,85.1,79.0,30.01,ENE,63,9.1,10.0,82,0.01,CLR,,0.06,WeatherDisplay:10.37,2013-08-19 16:38:00,
2013-08-19 12:43:00,85.8,79.3,30.01,NE,48,4.5,9.2,81,0.01,CLR,,0.06,WeatherDisplay:10.37,2013-08-19 16:43:00,
2013-08-19 12:48:00,86.3,78.2,30.00,East,84,7.8,11.5,77,0.01,CLR,,0.06,WeatherDisplay:10.37,2013-08-19 16:48:00,
2013-08-19 12:53:00,86.6,78.5,30.00,ESE,105,5.3,9.2,77,0.01,CLR,,0.06,WeatherDisplay:10.37,2013-08-19 16:53:00,
2013-08-19 12:58:00,86.7,78.2,30.00,ESE,107,9.4,15.0,76,0.01,CLR,,0.06,WeatherDisplay:10.37,2013-08-19 16:58:00,
2013-08-19 13:03:00,86.8,77.5,30.00,SE,138,4.1,12.7,74,0.01,CLR,,0.06,WeatherDisplay:10.37,2013-08-19 17:03:00,
2013-08-19 13:08:00,86.9,77.6,30.00,ENE,78,5.0,11.5,74,0.01,CLR,,0.06,WeatherDisplay:10.37,2013-08-19 17:08:00,
2013-08-19 13:13:00,87.0,77.3,30.00,East,101,6.6,17.3,73,0.00,CLR,,0.06,WeatherDisplay:10.37,2013-08-19 17:13:00,
2013-08-19 13:18:00,87.2,77.5,30.00,ESE,123,9.5,12.7,73,0.00,CLR,,0.06,WeatherDisplay:10.37,2013-08-19 17:18:00,
2013-08-19 13:23:00,87.4,77.7,30.00,ESE,116,6.9,11.5,73,0.00,CLR,,0.06,WeatherDisplay:10.37,2013-08-19 17:23:00,
2013-08-19 13:28:00,87.2,77.5,30.00,ESE,117,8.3,15.0,73,0.00,CLR,,0.06,WeatherDisplay:10.37,2013-08-19 17:28:00,
2013-08-19 13:33:00,87.3,76.3,30.00,East,87,8.5,11.5,70,0.00,CLR,,0.06,WeatherDisplay:10.37,2013-08-19 17:33:00,
2013-08-19 13:39:00,87.6,75.7,30.00,SE,142,7.0,11.5,68,0.00,CLR,,0.06,WeatherDisplay:10.37,2013-08-19 17:39:00,
2013-08-19 13:44:00,87.9,76.9,30.00,ENE,67,7.2,13.8,70,0.00,CLR,,0.06,WeatherDisplay:10.37,2013-08-19 17:44:00,
2013-08-19 13:49:00,87.8,76.4,30.00,SSE,166,9.0,9.2,69,0.00,CLR,,0.06,WeatherDisplay:10.37,2013-08-19 17:49:00,
2013-08-19 13:54:00,88.0,77.4,30.00,ENE,57,5.2,11.5,71,0.00,CLR,,0.06,WeatherDisplay:10.37,2013-08-19 17:54:00,
2013-08-19 13:59:00,88.2,77.6,30.00,ENE,67,8.5,12.7,71,0.00,CLR,,0.06,WeatherDisplay:10.37,2013-08-19 17:59:00,
2013-08-19 14:04:00,87.8,77.2,30.00,East,86,7.5,10.4,71,0.00,CLR,,0.06,WeatherDisplay:10.37,2013-08-19 18:04:00,
2013-08-19 14:09:00,87.6,76.6,30.00,ESE,111,2.3,11.5,70,0.00,CLR,,0.06,WeatherDisplay:10.37,2013-08-19 18:09:00,
2013-08-19 14:14:00,87.8,75.9,29.99,SE,128,8.5,8.5,68,0.00,CLR,,0.06,WeatherDisplay:10.37,2013-08-19 18:14:00,
2013-08-19 14:19:00,88.1,77.1,29.99,SE,137,6.1,13.8,70,0.00,CLR,,0.06,WeatherDisplay:10.37,2013-08-19 18:19:00,
2013-08-19 14:24:00,88.1,77.1,29.99,SSE,161,7.1,11.5,70,0.00,CLR,,0.06,WeatherDisplay:10.37,2013-08-19 18:24:00,
2013-08-19 14:29:00,88.3,76.8,29.99,ESE,123,5.2,10.4,69,0.00,CLR,,0.06,WeatherDisplay:10.37,2013-08-19 18:29:00,
2013-08-19 14:34:00,88.4,76.9,29.99,ESE,111,7.6,13.8,69,0.00,CLR,,0.06,WeatherDisplay:10.37,2013-08-19 18:34:00,
2013-08-19 14:39:00,88.2,77.2,29.99,ESE,106,5.6,12.7,70,0.00,CLR,,0.06,WeatherDisplay:10.37,2013-08-19 18:39:00,
2013-08-19 14:44:00,88.3,78.1,29.99,ENE,62,6.2,10.4,72,0.00,CLR,,0.06,WeatherDisplay:10.37,2013-08-19 18:44:00,
2013-08-19 14:49:00,87.7,77.5,29.99,ESE,114,9.0,11.5,72,0.00,CLR,,0.06,WeatherDisplay:10.37,2013-08-19 18:49:00,
2013-08-19 14:54:00,87.5,74.7,29.99,SE,132,6.8,10.4,66,0.00,CLR,,0.06,WeatherDisplay:10.37,2013-08-19 18:54:00,
2013-08-19 14:59:00,87.8,75.5,29.98,ESE,121,6.4,15.0,67,0.00,CLR,,0.06,WeatherDisplay:10.37,2013-08-19 18:59:00,
2013-08-19 15:04:00,87.8,74.6,29.98,SE,142,10.0,11.5,65,0.00,CLR,,0.06,WeatherDisplay:10.37,2013-08-19 19:04:00,
2013-08-19 15:09:00,88.1,77.1,29.98,East,101,7.6,10.4,70,0.00,CLR,,0.06,WeatherDisplay:10.37,2013-08-19 19:09:00,
2013-08-19 15:14:00,88.1,77.1,29.98,ESE,107,4.6,8.1,70,0.00,CLR,,0.06,WeatherDisplay:10.37,2013-08-19 19:14:00,
2013-08-19 15:19:00,87.6,75.7,29.98,NNE,32,6.2,9.2,68,0.00,CLR,,0.06,WeatherDisplay:10.37,2013-08-19 19:19:00,
2013-08-19 15:24:00,87.6,75.7,29.97,East,89,6.2,10.4,68,0.00,CLR,,0.06,WeatherDisplay:10.37,2013-08-19 19:24:00,
2013-08-19 15:29:00,87.5,76.1,29.97,ESE,109,7.6,11.5,69,0.00,CLR,,0.06,WeatherDisplay:10.37,2013-08-19 19:29:00,
2013-08-19 15:34:00,87.6,76.2,29.97,ENE,77,7.9,11.5,69,0.00,CLR,,0.06,WeatherDisplay:10.37,2013-08-19 19:34:00,
2013-08-19 15:39:00,87.5,76.5,29.97,East,99,4.6,9.2,70,0.00,CLR,,0.06,WeatherDisplay:10.37,2013-08-19 19:39:00,
2013-08-19 15:44:00,87.0,75.6,29.96,East,92,5.1,5.1,69,0.00,CLR,,0.06,WeatherDisplay:10.37,2013-08-19 19:44:00,
2013-08-19 15:49:00,87.5,75.6,29.96,ESE,102,9.1,11.5,68,0.00,CLR,,0.06,WeatherDisplay:10.37,2013-08-19 19:49:00,
2013-08-19 15:54:00,87.7,75.4,29.96,East,87,5.3,9.2,67,0.00,CLR,,0.06,WeatherDisplay:10.37,2013-08-19 19:54:00,
2013-08-19 15:59:00,87.9,76.0,29.96,ESE,102,7.1,9.2,68,0.00,CLR,,0.06,WeatherDisplay:10.37,2013-08-19 19:59:00,
2013-08-19 16:04:00,87.8,75.9,29.96,ENE,61,6.3,12.7,68,0.00,CLR,,0.06,WeatherDisplay:10.37,2013-08-19 20:04:00,
2013-08-19 16:09:00,87.6,75.7,29.96,East,90,4.1,11.5,68,0.00,CLR,,0.06,WeatherDisplay:10.37,2013-08-19 20:09:00,
2013-08-19 16:14:00,87.4,76.0,29.96,ESE,117,4.9,9.2,69,0.00,CLR,,0.06,WeatherDisplay:10.37,2013-08-19 20:14:00,
2013-08-19 16:19:00,87.4,76.4,29.96,East,90,9.1,11.5,70,0.00,CLR,,0.06,WeatherDisplay:10.37,2013-08-19 20:19:00,
2013-08-19 16:24:00,87.3,77.2,29.95,SE,140,4.9,9.2,72,0.00,CLR,,0.06,WeatherDisplay:10.37,2013-08-19 20:24:00,
2013-08-19 16:29:00,87.3,77.2,29.96,ESE,105,7.8,10.4,72,0.00,CLR,,0.06,WeatherDisplay:10.37,2013-08-19 20:29:00,
2013-08-19 16:34:00,87.2,76.2,29.95,East,99,9.8,12.7,70,0.00,CLR,,0.06,WeatherDisplay:10.37,2013-08-19 20:34:00,
2013-08-19 16:39:00,87.5,76.9,29.95,East,88,3.7,6.9,71,0.00,CLR,,0.06,WeatherDisplay:10.37,2013-08-19 20:39:00,
2013-08-19 16:44:00,87.7,77.5,29.95,ENE,65,5.7,8.1,72,0.00,CLR,,0.06,WeatherDisplay:10.37,2013-08-19 20:44:00,
2013-08-19 16:49:00,87.1,77.4,29.95,ENE,67,8.8,11.5,73,0.00,CLR,,0.06,WeatherDisplay:10.37,2013-08-19 20:49:00,
2013-08-19 16:54:00,86.8,77.1,29.95,SE,134,6.8,6.9,73,0.00,CLR,,0.06,WeatherDisplay:10.37,2013-08-19 20:54:00,
2013-08-19 16:59:00,86.9,76.8,29.95,East,94,4.6,16.1,72,0.00,CLR,,0.06,WeatherDisplay:10.37,2013-08-19 20:59:00,
2013-08-19 17:04:00,87.1,77.4,29.95,SE,124,6.3,10.4,73,0.00,CLR,,0.06,WeatherDisplay:10.37,2013-08-19 21:04:00,
2013-08-19 17:09:00,87.3,77.6,29.95,ESE,106,3.8,11.5,73,0.00,CLR,,0.06,WeatherDisplay:10.37,2013-08-19 21:09:00,
2013-08-19 17:14:00,87.0,77.7,29.95,East,89,6.0,9.2,74,0.00,CLR,,0.06,WeatherDisplay:10.37,2013-08-19 21:14:00,
2013-08-19 17:19:00,86.5,77.2,29.95,East,95,6.4,11.5,74,0.00,CLR,,0.06,WeatherDisplay:10.37,2013-08-19 21:19:00,
2013-08-19 17:24:00,86.6,77.7,29.95,NE,51,6.8,9.2,75,0.00,CLR,,0.06,WeatherDisplay:10.37,2013-08-19 21:24:00,
2013-08-19 17:29:00,86.4,76.3,29.96,SE,140,6.6,11.5,72,0.00,CLR,,0.06,WeatherDisplay:10.37,2013-08-19 21:29:00,
2013-08-19 17:34:00,85.6,75.5,29.96,SE,145,4.6,10.4,72,0.00,CLR,,0.06,WeatherDisplay:10.37,2013-08-19 21:34:00,
2013-08-19 17:39:00,84.9,75.7,29.96,SE,140,3.7,6.9,74,0.00,CLR,,0.06,WeatherDisplay:10.37,2013-08-19 21:39:00,
2013-08-19 17:44:00,84.9,76.5,29.96,SE,127,1.7,4.6,76,0.00,CLR,,0.06,WeatherDisplay:10.37,2013-08-19 21:44:00,
2013-08-19 17:49:00,85.3,77.3,29.96,ESE,122,3.7,6.9,77,0.00,CLR,,0.06,WeatherDisplay:10.37,2013-08-19 21:49:00,
2013-08-19 17:54:00,85.7,77.7,29.96,ESE,119,5.6,8.1,77,0.00,CLR,,0.06,WeatherDisplay:10.37,2013-08-19 21:54:00,
2013-08-19 17:59:00,85.7,77.7,29.96,SE,134,5.8,11.5,77,0.00,CLR,,0.06,WeatherDisplay:10.37,2013-08-19 21:59:00,
2013-08-19 18:04:00,85.7,76.5,29.96,ESE,113,7.4,11.5,74,0.00,CLR,,0.06,WeatherDisplay:10.37,2013-08-19 22:04:00,
2013-08-19 18:09:00,85.8,77.0,29.96,ESE,115,5.3,8.1,75,0.00,CLR,,0.06,WeatherDisplay:10.37,2013-08-19 22:09:00,
2013-08-19 18:15:00,85.9,76.6,29.96,ESE,102,6.5,10.4,74,0.00,CLR,,0.06,WeatherDisplay:10.37,2013-08-19 22:15:00,
2013-08-19 18:20:00,85.9,76.2,29.96,ESE,123,5.6,8.1,73,0.00,CLR,,0.06,WeatherDisplay:10.37,2013-08-19 22:20:00,
2013-08-19 18:25:00,86.1,76.4,29.96,ESE,114,3.4,9.2,73,0.00,CLR,,0.06,WeatherDisplay:10.37,2013-08-19 22:25:00,
2013-08-19 18:30:00,86.2,76.5,29.96,East,96,2.3,5.8,73,0.00,CLR,,0.06,WeatherDisplay:10.37,2013-08-19 22:30:00,
2013-08-19 18:35:00,86.1,76.8,29.96,ESE,107,4.4,9.2,74,0.00,CLR,,0.06,WeatherDisplay:10.37,2013-08-19 22:35:00,
2013-08-19 18:40:00,86.0,77.1,29.96,East,94,4.3,6.9,75,0.00,CLR,,0.06,WeatherDisplay:10.37,2013-08-19 22:40:00,
2013-08-19 18:45:00,85.9,77.5,29.96,NE,44,5.1,9.2,76,0.00,CLR,,0.06,WeatherDisplay:10.37,2013-08-19 22:45:00,
2013-08-19 18:50:00,85.7,77.3,29.96,ESE,120,2.5,6.9,76,0.00,CLR,,0.06,WeatherDisplay:10.37,2013-08-19 22:50:00,
2013-08-19 18:55:00,85.6,77.2,29.96,ESE,119,2.4,5.8,76,0.00,CLR,,0.06,WeatherDisplay:10.37,2013-08-19 22:55:00,
2013-08-19 19:00:00,85.5,76.7,29.96,East,87,2.9,3.5,75,0.00,CLR,,0.06,WeatherDisplay:10.37,2013-08-19 23:00:00,
2013-08-19 19:05:00,85.3,76.9,29.96,SSE,149,1.5,3.5,76,0.00,CLR,,0.06,WeatherDisplay:10.37,2013-08-19 23:05:00,
2013-08-19 19:10:00,85.2,76.8,29.96,ESE,120,1.9,3.5,76,0.00,CLR,,0.06,WeatherDisplay:10.37,2013-08-19 23:10:00,
2013-08-19 19:15:00,85.0,76.2,29.96,East,92,3.0,4.6,75,0.00,CLR,,0.06,WeatherDisplay:10.37,2013-08-19 23:15:00,
2013-08-19 19:20:00,84.8,76.8,29.96,ESE,119,3.8,4.6,77,0.00,CLR,,0.06,WeatherDisplay:10.37,2013-08-19 23:20:00,
2013-08-19 19:25:00,84.7,76.7,29.96,ESE,113,2.1,3.5,77,0.00,CLR,,0.06,WeatherDisplay:10.37,2013-08-19 23:25:00,
2013-08-19 19:30:00,84.5,76.9,29.97,SE,128,1.7,3.5,78,0.00,CLR,,0.06,WeatherDisplay:10.37,2013-08-19 23:30:00,
2013-08-19 19:35:00,84.4,76.8,29.97,SE,132,3.1,3.5,78,0.00,CLR,,0.06,WeatherDisplay:10.37,2013-08-19 23:35:00,
2013-08-19 19:40:00,84.2,76.6,29.97,SE,130,1.8,3.5,78,0.00,CLR,,0.06,WeatherDisplay:10.37,2013-08-19 23:40:00,
2013-08-19 19:45:00,84.1,76.9,29.97,ESE,117,1.1,3.5,79,0.00,CLR,,0.06,WeatherDisplay:10.37,2013-08-19 23:45:00,
2013-08-19 19:50:00,84.0,76.8,29.97,ESE,107,2.0,3.5,79,0.00,CLR,,0.06,WeatherDisplay:10.37,2013-08-19 23:50:00,
2013-08-19 19:55:00,83.9,76.7,29.97,ESE,120,2.4,3.5,79,0.00,CLR,,0.06,WeatherDisplay:10.37,2013-08-19 23:55:00,
2013-08-19 20:00:00,83.8,76.6,29.97,ESE,111,0.9,2.3,79,0.00,CLR,,0.06,WeatherDisplay:10.37,2013-08-20 00:00:00,
2013-08-19 20:05:00,83.7,76.5,29.97,ESE,109,2.6,3.5,79,0.00,CLR,,0.06,WeatherDisplay:10.37,2013-08-20 00:05:00,
2013-08-19 20:10:00,83.6,76.8,29.97,ESE,113,0.7,2.3,80,0.00,CLR,,0.06,WeatherDisplay:10.37,2013-08-20 00:10:00,
2013-08-19 20:15:00,83.6,77.1,29.97,East,95,0.4,2.3,81,0.00,CLR,,0.06,WeatherDisplay:10.37,2013-08-20 00:15:00,
2013-08-19 20:20:00,83.4,76.6,29.97,East,94,0.3,1.2,80,0.00,CLR,,0.06,WeatherDisplay:10.37,2013-08-20 00:20:00,
2013-08-19 20:25:00,83.4,76.6,29.97,East,93,1.1,2.3,80,0.00,CLR,,0.06,WeatherDisplay:10.37,2013-08-20 00:25:00,
2013-08-19 20:30:00,83.3,76.5,29.98,East,93,0.6,2.3,80,0.00,CLR,,0.06,WeatherDisplay:10.37,2013-08-20 00:30:00,
2013-08-19 20:35:00,83.3,76.9,29.98,East,92,0.3,1.2,81,0.00,CLR,,0.06,WeatherDisplay:10.37,2013-08-20 00:35:00,
2013-08-19 20:40:00,83.2,76.8,29.98,East,92,0.0,0.0,81,0.00,CLR,,0.06,WeatherDisplay:10.37,2013-08-20 00:40:00,
2013-08-19 20:45:00,83.2,76.8,29.98,East,94,0.4,1.2,81,0.00,CLR,,0.06,WeatherDisplay:10.37,2013-08-20 00:45:00,
2013-08-19 20:50:00,83.1,76.7,29.98,East,94,0.0,0.0,81,0.00,CLR,,0.06,WeatherDisplay:10.37,2013-08-20 00:50:00,
2013-08-19 20:55:00,83.0,76.9,29.98,East,94,0.4,2.3,82,0.00,CLR,,0.06,WeatherDisplay:10.37,2013-08-20 00:55:00,
2013-08-19 21:00:00,82.8,76.7,29.98,East,94,0.5,2.3,82,0.00,CLR,,0.06,WeatherDisplay:10.37,2013-08-20 01:00:00,
2013-08-19 21:05:00,82.8,76.7,29.98,East,94,0.8,2.3,82,0.00,CLR,,0.06,WeatherDisplay:10.37,2013-08-20 01:05:00,
2013-08-19 21:10:00,82.7,76.6,29.98,East,94,0.0,0.0,82,0.00,CLR,,0.06,WeatherDisplay:10.37,2013-08-20 01:10:00,
2013-08-19 21:15:00,82.6,76.5,29.99,East,94,0.0,0.0,82,0.00,CLR,,0.06,WeatherDisplay:10.37,2013-08-20 01:15:00,
2013-08-19 21:20:00,82.6,76.9,29.99,East,94,0.0,0.0,83,0.00,CLR,,0.06,WeatherDisplay:10.37,2013-08-20 01:20:00,
2013-08-19 21:25:00,82.5,77.2,29.99,East,94,0.0,0.0,84,0.00,CLR,,0.06,WeatherDisplay:10.37,2013-08-20 01:25:00,
2013-08-19 21:30:00,82.3,76.6,29.99,East,94,0.0,0.0,83,0.00,CLR,,0.06,WeatherDisplay:10.37,2013-08-20 01:30:00,
2013-08-19 21:35:00,82.2,77.6,29.99,East,94,0.0,0.0,86,0.00,CLR,,0.06,WeatherDisplay:10.37,2013-08-20 01:35:00,
2013-08-19 21:40:00,81.9,76.9,29.99,North,360,0.2,1.2,85,0.00,CLR,,0.06,WeatherDisplay:10.37,2013-08-20 01:40:00,
2013-08-19 21:45:00,82.0,76.7,29.99,East,88,1.0,1.2,84,0.00,CLR,,0.06,WeatherDisplay:10.37,2013-08-20 01:45:00,
2013-08-19 21:50:00,82.1,77.1,30.00,East,88,0.2,1.0,85,0.00,CLR,,0.06,WeatherDisplay:10.37,2013-08-20 01:50:00,
2013-08-19 21:55:00,82.1,77.1,30.00,East,88,0.0,0.0,85,0.00,CLR,,0.06,WeatherDisplay:10.37,2013-08-20 01:55:00,
2013-08-19 22:00:00,82.2,76.5,30.00,East,88,0.4,1.0,83,0.00,CLR,,0.06,WeatherDisplay:10.37,2013-08-20 02:00:00,
2013-08-19 22:05:00,82.3,76.3,30.01,East,88,0.5,2.3,82,0.00,CLR,,0.06,WeatherDisplay:10.37,2013-08-20 02:05:00,
2013-08-19 22:10:00,82.3,76.6,30.01,East,88,0.0,0.0,83,0.00,CLR,,0.06,WeatherDisplay:10.37,2013-08-20 02:10:00,
2013-08-19 22:15:00,82.3,76.3,30.01,East,88,0.0,0.0,82,0.00,CLR,,0.06,WeatherDisplay:10.37,2013-08-20 02:15:00,
2013-08-19 22:20:00,82.2,76.9,30.01,East,88,0.0,0.0,84,0.00,CLR,,0.06,WeatherDisplay:10.37,2013-08-20 02:20:00,
2013-08-19 22:25:00,82.0,76.0,30.01,East,88,0.2,2.3,82,0.00,CLR,,0.06,WeatherDisplay:10.37,2013-08-20 02:25:00,
2013-08-19 22:30:00,82.0,75.2,30.01,East,88,0.9,1.2,80,0.00,CLR,,0.06,WeatherDisplay:10.37,2013-08-20 02:30:00,
2013-08-19 22:35:00,82.1,75.3,30.01,East,88,0.0,1.2,80,0.00,CLR,,0.06,WeatherDisplay:10.37,2013-08-20 02:35:00,
2013-08-19 22:40:00,82.1,75.3,30.01,East,88,0.2,1.2,80,0.00,CLR,,0.06,WeatherDisplay:10.37,2013-08-20 02:40:00,
2013-08-19 22:45:00,82.0,75.2,30.01,East,88,0.3,1.2,80,0.00,CLR,,0.06,WeatherDisplay:10.37,2013-08-20 02:45:00,
2013-08-19 22:50:00,82.0,76.0,30.01,East,88,0.0,0.0,82,0.00,CLR,,0.06,WeatherDisplay:10.37,2013-08-20 02:50:00,
2013-08-19 22:55:00,81.8,76.1,30.01,East,88,0.0,1.2,83,0.00,CLR,,0.06,WeatherDisplay:10.37,2013-08-20 02:55:00,
2013-08-19 23:00:00,81.6,76.3,30.01,East,88,0.0,1.2,84,0.00,CLR,,0.06,WeatherDisplay:10.37,2013-08-20 03:00:00,
2013-08-19 23:05:00,81.2,75.5,30.01,East,88,0.0,0.0,83,0.00,CLR,,0.06,WeatherDisplay:10.37,2013-08-20 03:05:00,
2013-08-19 23:10:00,80.9,75.2,30.01,East,88,0.0,0.0,83,0.00,CLR,,0.06,WeatherDisplay:10.37,2013-08-20 03:10:00,
2013-08-19 23:15:00,80.8,75.5,30.01,East,88,0.0,0.0,84,0.00,CLR,,0.06,WeatherDisplay:10.37,2013-08-20 03:15:00,
2013-08-19 23:20:00,80.8,76.6,30.01,East,88,0.1,1.2,87,0.00,CLR,,0.06,WeatherDisplay:10.37,2013-08-20 03:20:00,
2013-08-19 23:25:00,80.7,76.1,30.02,East,88,0.0,1.2,86,0.00,CLR,,0.06,WeatherDisplay:10.37,2013-08-20 03:25:00,
2013-08-19 23:30:00,80.8,75.9,30.02,East,88,2.2,4.6,85,0.00,CLR,,0.06,WeatherDisplay:10.37,2013-08-20 03:30:00,
2013-08-19 23:35:00,81.2,76.3,30.02,East,88,0.0,1.2,85,0.00,CLR,,0.06,WeatherDisplay:10.37,2013-08-20 03:35:00,
2013-08-19 23:40:00,81.3,76.4,30.02,East,88,1.4,2.3,85,0.00,CLR,,0.06,WeatherDisplay:10.37,2013-08-20 03:40:00,
2013-08-19 23:45:00,81.4,76.5,30.02,East,88,0.1,1.2,85,0.00,CLR,,0.06,WeatherDisplay:10.37,2013-08-20 03:45:00,
2013-08-19 23:50:00,81.5,76.2,30.01,East,88,0.1,1.2,84,0.00,CLR,,0.06,WeatherDisplay:10.37,2013-08-20 03:50:00,
2013-08-19 23:56:00,81.6,76.6,30.01,East,88,0.9,3.5,85,0.00,CLR,,0.06,WeatherDisplay:10.37,2013-08-20 03:56:00,